FW4820 Weather Reports


time (UTC)temp
C
wind
direction
speed
KPH
gust
KPH
rain 1hr
cm
rain 24hr
cm
rain mn
cm
humidity
%
barometer
mb
20260502130516 7 315 1.6 3.2 0.00 0.00 0.00 70 1023.1
20260502123516 5 315 1.6 4.8 0.00 0.00 0.00 73 1022.9
20260502122516 5 315 1.6 4.8 0.00 0.00 0.00 76 1022.9
20260502121536 4 0.0 1.6 0.00 0.00 0.00 79 1022.8
20260502120516 3 0.0 0.0 0.00 0.00 0.00 84 1022.5
20260502115516 1 0.0 0.0 0.00 0.00 0.00 88 1022.2
20260502114516 1 0.0 0.0 0.00 0.00 0.00 87 1022.2
20260502113517 1 0.0 0.0 0.00 0.00 0.00 87 1021.9
20260502112516 1 0.0 0.0 0.00 0.00 0.00 87 1021.9
20260502111536 0 0.0 0.0 0.00 0.00 0.00 87 1021.8
20260502110516 1 0.0 0.0 0.00 0.00 0.00 85 1021.7
20260502105516 1 0.0 0.0 0.00 0.00 0.00 85 1021.7
20260502104516 1 0.0 0.0 0.00 0.00 0.00 85 1021.9
20260502103536 1 0.0 0.0 0.00 0.00 0.00 85 1021.8
20260502102516 1 0.0 0.0 0.00 0.00 0.00 84 1021.7
20260502101516 1 0.0 0.0 0.00 0.00 0.00 82 1021.6
20260502100516 2 0.0 0.0 0.00 0.00 0.00 81 1021.7
20260502091515 2 0.0 0.0 0.00 0.00 0.00 80 1021.4
20260502090516 2 0.0 0.0 0.00 0.00 0.00 80 1021.5
20260502071515 6 0.0 0.0 0.00 0.00 0.00 67 1021.2
20260502070516 7 0.0 0.0 0.00 0.00 0.00 65 1021.4
20260502065515 7 0.0 0.0 0.00 0.00 0.00 63 1021.5
20260502064515 8 0 1.6 6.4 0.00 0.00 0.00 61 1021.6
20260502063516 8 0 3.2 6.4 0.00 0.00 0.00 62 1021.5
20260502062516 7 0.0 3.2 0.00 0.00 0.00 63 1021.5
20260502061515 7 0 1.6 6.4 0.00 0.00 0.00 63 1021.5
20260502060515 6 0.0 1.6 0.00 0.00 0.00 67 1021.3
20260502055516 5 0.0 0.0 0.00 0.00 0.00 69 1021.2
20260502054515 6 0.0 0.0 0.00 0.00 0.00 67 1021.2
20260502053515 7 0.0 0.0 0.00 0.00 0.00 63 1021.2
20260502052515 8 0.0 1.6 0.00 0.00 0.00 60 1021.4
20260502051515 8 0.0 1.6 0.00 0.00 0.00 60 1021.3
20260502050515 8 0.0 0.0 0.00 0.00 0.00 60 1021.3
20260502045517 9 0 1.6 4.8 0.00 0.00 0.00 59 1021.3
20260502044537 10 0.0 3.2 0.00 0.00 0.00 58 1021.1
20260502043517 10 23 4.8 11.3 0.00 0.00 0.00 56 1021.0
20260502042537 10 0 1.6 6.4 0.00 0.00 0.00 57 1020.9
20260502041537 10 0 3.2 9.7 0.00 0.00 0.00 57 1020.9
20260502040516 10 0 1.6 4.8 0.00 0.00 0.00 56 1020.9
20260502035517 11 338 1.6 4.8 0.00 0.00 0.00 56 1021.0
20260502034516 11 0 3.2 6.4 0.00 0.00 0.00 56 1020.9
20260502033516 11 23 1.6 4.8 0.00 0.00 0.00 56 1020.7
20260502032516 11 0 3.2 6.4 0.00 0.00 0.00 56 1020.5
20260502031557 11 23 3.2 11.3 0.00 0.00 0.00 58 1020.4
20260502030557 11 0 3.2 9.7 0.00 0.00 0.00 61 1020.4
20260502025516 8 0 1.6 9.7 0.00 0.00 0.00 68 1020.0
20260502024516 8 0.0 0.0 0.00 0.00 0.00 70 1019.7
20260502023516 9 0.0 0.0 0.00 0.00 0.00 69 1019.5
20260502022517 10 0.0 0.0 0.00 0.00 0.00 66 1019.2
20260502021516 10 0.0 0.0 0.00 0.00 0.00 64 1019.1
20260502020516 10 0.0 0.0 0.00 0.00 0.00 62 1018.8
20260502015516 11 0.0 0.0 0.00 0.00 0.00 60 1018.7
20260502014516 12 0.0 0.0 0.00 0.00 0.00 55 1018.7
20260502013516 13 0.0 0.0 0.00 0.00 0.00 53 1018.6
20260502012516 13 0.0 4.8 0.00 0.00 0.00 50 1018.4
20260502011536 15 0.0 1.6 0.00 0.00 0.00 48 1018.3
20260502010536 15 0.0 3.2 0.00 0.00 0.00 47 1018.2
20260502005516 15 0 1.6 6.4 0.00 0.00 0.00 45 1018.0
20260502004516 16 315 4.8 11.3 0.00 0.00 0.00 44 1018.0
20260502003516 16 23 8.0 14.5 0.00 0.00 0.00 42 1017.7
20260502002517 17 0 6.4 20.9 0.00 0.00 0.00 40 1017.6
20260502001516 17 338 3.2 6.4 0.00 0.00 0.00 40 1017.4
20260502000537 17 315 4.8 11.3 0.00 0.00 0.00 41 1017.2
20260501235536 17 338 6.4 14.5 0.00 0.00 0.00 38 1017.2
20260501234516 18 315 3.2 16.1 0.00 0.00 0.00 40 1017.1
20260501233516 18 315 6.4 19.3 0.00 0.00 0.00 37 1017.0
20260501232516 18 315 3.2 12.9 0.00 0.00 0.00 38 1017.1
20260501231516 17 315 4.8 12.9 0.00 0.00 0.00 42 1017.1
20260501230516 17 338 3.2 11.3 0.00 0.00 0.00 41 1017.1
20260501225516 18 315 6.4 17.7 0.00 0.00 0.00 38 1017.0
20260501224516 18 270 4.8 14.5 0.00 0.00 0.00 39 1017.1
20260501223516 18 248 4.8 16.1 0.00 0.00 0.00 43 1017.1
20260501222516 18 293 3.2 14.5 0.00 0.00 0.00 39 1017.1
20260501221516 17 315 4.8 11.3 0.00 0.00 0.00 41 1017.2
20260501220516 18 315 6.4 17.7 0.00 0.00 0.00 39 1017.2
20260501215516 18 338 3.2 8.0 0.00 0.00 0.00 46 1017.4
20260501214516 18 315 3.2 12.9 0.00 0.00 0.00 43 1017.4
20260501213536 18 248 6.4 20.9 0.00 0.00 0.00 44 1017.4
20260501212516 17 248 4.8 14.5 0.00 0.00 0.00 43 1017.8
20260501211516 17 0 3.2 9.7 0.00 0.00 0.00 45 1018.1
20260501210516 17 315 8.0 17.7 0.00 0.00 0.00 39 1018.0
20260501205516 17 315 4.8 12.9 0.00 0.00 0.00 45 1018.2
20260501204516 17 315 4.8 11.3 0.00 0.00 0.00 46 1018.5
20260501203516 18 225 4.8 14.5 0.00 0.00 0.00 43 1018.6
20260501202516 18 315 1.6 8.0 0.00 0.00 0.00 45 1018.6
20260501201516 18 315 4.8 12.9 0.00 0.00 0.00 42 1018.8
20260501200516 17 315 4.8 16.1 0.00 0.00 0.00 44 1018.9
20260501195516 17 248 6.4 16.1 0.00 0.00 0.00 40 1018.9
20260501194516 17 248 4.8 11.3 0.00 0.00 0.00 43 1019.1
20260501193516 17 248 3.2 11.3 0.00 0.00 0.00 42 1019.2
20260501192516 17 315 3.2 16.1 0.00 0.00 0.00 46 1019.1
20260501191516 18 248 4.8 14.5 0.00 0.00 0.00 45 1019.3
20260501190516 18 248 4.8 11.3 0.00 0.00 0.00 50 1019.4
20260501185516 17 270 4.8 14.5 0.00 0.00 0.00 45 1019.4
20260501184516 18 248 4.8 12.9 0.00 0.00 0.00 41 1019.4
20260501183516 18 315 3.2 12.9 0.00 0.00 0.00 46 1019.6
20260501182516 17 315 4.8 12.9 0.00 0.00 0.00 41 1019.5
20260501181517 17 315 4.8 9.7 0.00 0.00 0.00 42 1019.8
20260501180516 17 23 8.0 17.7 0.00 0.00 0.00 42 1019.8
20260501175516 17 23 8.0 14.5 0.00 0.00 0.00 41 1019.8
20260501174516 17 315 8.0 16.1 0.00 0.00 0.00 40 1020.0
20260501173516 17 315 6.4 14.5 0.00 0.00 0.00 39 1020.1
20260501172516 17 315 8.0 27.4 0.00 0.00 0.00 37 1020.2
20260501171516 17 315 3.2 11.3 0.00 0.00 0.00 44 1020.3
20260501170516 16 315 3.2 9.7 0.00 0.00 0.00 43 1020.4
20260501165516 17 248 6.4 19.3 0.00 0.00 0.00 40 1020.5
20260501164516 16 315 4.8 9.7 0.00 0.00 0.00 46 1020.5
20260501163516 16 248 8.0 12.9 0.00 0.00 0.00 43 1020.5
20260501162516 16 248 4.8 12.9 0.00 0.00 0.00 46 1020.4
20260501161516 15 248 3.2 12.9 0.00 0.00 0.00 47 1020.5
20260501160516 15 248 8.0 14.5 0.00 0.00 0.00 47 1020.6
20260501155516 15 248 6.4 14.5 0.00 0.00 0.00 51 1020.6
20260501154516 15 248 6.4 14.5 0.00 0.00 0.00 47 1020.6
20260501153516 15 248 3.2 8.0 0.00 0.00 0.00 48 1020.4
20260501152515 15 248 1.6 4.8 0.00 0.00 0.00 50 1020.3
20260501151516 14 248 3.2 9.7 0.00 0.00 0.00 54 1020.2
20260501150536 14 248 3.2 9.7 0.00 0.00 0.00 55 1020.4
20260501145515 13 225 4.8 16.1 0.00 0.00 0.00 61 1020.3
20260501144516 13 248 3.2 11.3 0.00 0.00 0.00 62 1020.3